Regional Weather Roundup
Issued by NWS Raleigh/Durham, NC

Home | Current Version | Previous Version | Text Only | Print | Product List | Glossary On
Versions: 1 2 3 4 5 6 7 8 9 10 11 12 13 14 15 16 17 18 19 20 21 22 23 24 25 26 27 28 29 30 31 32 33 34 35 36 37 38 39 40 41 42 43 44 45 46 47 48 49 50
000
ASUS42 KRAH 260710
RWRRAH
NORTH CAROLINA WEATHER ROUNDUP
NATIONAL WEATHER SERVICE RALEIGH NC
200 AM EST MON JAN 26 2015

NOTE: "FAIR" INDICATES FEW OR NO CLOUDS BELOW 12,000 FEET WITH NO
SIGNIFICANT WEATHER AND/OR OBSTRUCTIONS TO VISIBILITY.

NCZ001-053-055-056-065-067-260800-
WESTERN NORTH CAROLINA

CITY           SKY/WX    TMP DP  RH WIND       PRES   REMARKS
ASHEVILLE      CLOUDY    35  31  85 CALM      29.65F
JEFFERSON      MOCLDY    37  28  70 SE3       29.63F
MORGANTON      CLEAR     36  34  90 N3        29.71S
HICKORY        CLEAR     43  29  57 S6        29.66F
RUTHERFORDTON  MOCLDY    41  31  68 CALM      29.67F
MOUNT AIRY     MOCLDY    41  33  72 CALM      29.69S
BOONE          PTCLDY    33  28  84 CALM      29.64S
$$

NCZ021-022-025-041-071-084-088-260800-
CENTRAL NORTH CAROLINA

CITY           SKY/WX    TMP DP  RH WIND       PRES   REMARKS
CHARLOTTE      CLOUDY    44  30  57 CALM      29.69F
GREENSBORO     CLOUDY    41  33  73 S6        29.68F
WINSTON-SALEM  MOCLDY    41  32  70 S3        29.68F
RALEIGH-DURHAM CLOUDY    41  33  73 CALM      29.75F
FORT BRAGG     MOCLDY    38  35  87 SE2       29.74F
FAYETTEVILLE   CLEAR     36  34  92 S5        29.75F WCI  32
BURLINGTON     CLOUDY    43  32  65 SE6       29.71F
LAURINBURG     PTCLDY    42  37  82 S6        29.75F
$$

NCZ011-015-027-028-043-044-047-080-103-260800-
NORTHEASTERN NORTH CAROLINA

CITY           SKY/WX    TMP DP  RH WIND       PRES   REMARKS
ROCKY MT-WILSO PTCLDY    38  34  85 CALM      29.77F
GREENVILLE     PTCLDY    37  36  93 CALM      29.81F
WASHINGTON     CLOUDY    37  35  92 CALM      29.80F
ELIZABETH CITY PTCLDY    38  36  92 SE3       29.83F
MANTEO         CLEAR     36  36 100 CALM      29.83F
CAPE HATTERAS  CLEAR     45  40  82 NE7       29.81F
$$

NCZ078-087-090-091-093-098-101-260800-
SOUTHEASTERN NORTH CAROLINA

CITY           SKY/WX    TMP DP  RH WIND       PRES   REMARKS
LUMBERTON      CLEAR     41  37  86 S3        29.75F
GOLDSBORO      CLEAR     40  39  98 SE3       29.75F
KINSTON        CLEAR     37  35  95 CALM      29.79F
KENANSVILLE    PTCLDY    35  35  99 CALM      29.79F
NEW BERN       CLOUDY    40  36  86 CALM      29.81F
CHERRY POINT   CLOUDY    38  35  89 W5        29.81F WCI  34
BEAUFORT       MOCLDY    41  40  96 CALM      29.79F
JACKSONVILLE   PTCLDY    39  37  92 CALM      29.79F
WILMINGTON     PTCLDY    46  42  86 S7        29.79F
$$




USA.gov is the U.S. government's official web portal to all federal, state and local government web resources and services.